User: anonymous   Login
Location: Caltech
(34.1382°N, 118.1253°W)
Time: 08:55:17
(UTC-07:00)
Language:

Cosmos 2251 Rocket - Orbit

View from above orbital plane
View from above orbital plane
View from above satellite
View from above satellite

Ground track
Ground track

The orbit data is extracted from the following two-line orbital elements,

1 22676U 93036B   14302.82300019  .00000173  00000-0  71479-4 0  3590
2 22676 074.0414 139.8271 0018395 039.4380 320.8107 14.33667328117552
Epoch (UTC): 29 October 2014 19:45:07
Eccentricity: 0.0018395
inclination: 74.0414°
perigee height: 766 km
apogee height: 792 km
right ascension of ascending node: 139.8271°
argument of perigee: 39.4380°
revolutions per day: 14.33667328
mean anomaly at epoch: 320.8107°
orbit number at epoch: 11755

The dashed part of the orbit path shows where the satellite is in the earth's shadow,  

DLR